Location: Unspecified
(51.6250°N, 0.8230°E)
Time: 10:28:39
(UTC+01:00)

Okean 3 - Pass Details

Date: 11 August 2020
Orbit: 576 x 601 km, 82.5° (Epoch: 23 September)

Event Time Altitude Azimuth Distance (km) Brightness Sun altitude
Rises 23:58:53 0° 342° (NNW) 2,851 8.5 -21.8°
Reaches altitude 10° 00:01:15 10° 333° (NNW) 1,947 7.2 -21.9°
Maximum altitude 00:05:06 32° 269° (W) 1,029 4.8 -22.0°
Enters shadow 00:06:05 29° 242° (WSW) 1,114 4.7 -22.1°
